Weather History for Kejimkujik, NS

Change the Weather History Date:

Wednesday, February 19, 2014

  Actual Average Record
Temperature  
Mean Temperature 31 °F -  
Max Temperature 35 °F - - ()
Min Temperature 27 °F - - ()
Degree Days  
Heating Degree Days 34    
Moisture  
Dew Point 31 °F    
Average Humidity 97    
Maximum Humidity 100    
Minimum Humidity 89    
Precipitation  
Precipitation 0.95 in - - ()
Sea Level Pressure  
Sea Level Pressure 29.87 in    
Wind  
Wind Speed 6 mph ()    
Max Wind Speed 12 mph    
Max Gust Speed 20 mph    
T = Trace of Precipitation, MM = Missing Value Source: Averaged Metar Reports

Daily Weather History Graph

Daily Weather History Graph

Search for Another Location

Airport:

Trip Planner

Search our weather history database for the weather conditions in past years. The results will help you decide how hot, cold, wet, or windy it might be!

Date:

Astronomy

Feb. 19, 2014 Rise Set
Actual Time 7:14 AM AST 5:55 PM AST
Civil Twilight 6:45 AM AST 6:24 PM AST
Nautical Twilight 6:11 AM AST 6:58 PM AST
Astronomical Twilight 5:37 AM AST 7:32 PM AST
Moon 10:57 PM AST (2/19) 9:06 AM AST (2/19)
Length of Visible Light 11h 39m
Length of Day
10h 40m
Waning Gibbous, 80% of the Moon is Illuminated
Feb 19
Waning Gibbous
Feb 22
Last Quarter
Mar 1
New
Mar 8
First Quarter
Mar 16
Full

Hourly Weather History & Observations

Time (AST) Temp. Windchill Dew Point Humidity Pressure Visibility Wind Dir Wind Speed Gust Speed Precip Events Conditions
12:00 AM 27.3 °F 18.4 °F 27.0 °F 99% 29.94 in - ENE 9.2 mph - N/A   Unknown
1:00 AM 28.9 °F 20.4 °F 28.8 °F 99% 29.87 in - NE 9.2 mph - N/A   Unknown
2:00 AM 31 °F - 31 °F 99% 29.75 in - NE 11.5 mph - -  
2:00 AM 30.9 °F 21.7 °F 30.7 °F 99% 29.75 in - NE 11.5 mph 19.6 mph N/A   Unknown
3:00 AM 31.8 °F 23.9 °F 31.6 °F 99% 29.70 in - NE 9.2 mph - N/A   Unknown
4:00 AM 31.8 °F 26.2 °F 31.6 °F 99% 29.66 in - NE 5.8 mph - N/A   Unknown
5:00 AM 31.5 °F - 31.5 °F 100% 29.67 in - West 2.3 mph - N/A   Unknown
6:00 AM 30.6 °F 24.7 °F 30.4 °F 99% 29.70 in - WNW 5.8 mph - N/A   Unknown
7:00 AM 27.3 °F 22.0 °F 27.1 °F 99% 29.76 in - West 4.6 mph - N/A   Unknown
8:00 AM 28 °F - 28 °F 100% 29.84 in - WNW 5.8 mph - -  
8:00 AM 28.2 °F 22.0 °F 28.0 °F 99% 29.84 in - WNW 5.8 mph - N/A   Unknown
9:00 AM 29.8 °F 24.9 °F 29.5 °F 99% 29.89 in - WNW 4.6 mph - N/A   Unknown
10:00 AM 31.8 °F 27.3 °F 31.6 °F 99% 29.89 in - NW 4.6 mph - N/A   Unknown
11:00 AM 31.8 °F 26.2 °F 31.5 °F 99% 29.94 in - WNW 5.8 mph - N/A   Unknown
12:00 PM 32.0 °F 28.7 °F 31.3 °F 97% 29.97 in - West 3.5 mph - N/A   Unknown
1:00 PM 33.3 °F - 31.5 °F 93% 29.99 in - West 2.3 mph - N/A   Unknown
2:00 PM 35 °F - 33 °F 92% 30.00 in - SW 3.5 mph - -  
2:00 PM 34.7 °F 31.8 °F 33.4 °F 95% 30.00 in - SW 3.5 mph - N/A   Unknown
3:00 PM 34.2 °F - 32.9 °F 95% 29.98 in - WNW 1.2 mph - N/A   Unknown
4:00 PM 34.3 °F - 31.5 °F 89% 29.99 in - WSW 2.3 mph - N/A   Unknown
5:00 PM 32.9 °F 28.5 °F 31.6 °F 95% 29.99 in - South 4.6 mph - N/A   Unknown
6:00 PM - - - N/A% 29.97 in - ESE 4.6 mph - N/A   Unknown
7:00 PM 31.6 °F 27.0 °F 30.9 °F 97% 29.94 in - East 4.6 mph - N/A   Unknown
8:00 PM 32 °F - 31 °F 97% 29.93 in - East 5.8 mph - -  
8:00 PM 32.0 °F 26.4 °F 31.5 °F 98% 29.93 in - East 5.8 mph - N/A   Unknown
9:00 PM - - - N/A% 29.89 in - ESE 6.9 mph - N/A   Unknown
10:00 PM 31.3 °F 23.3 °F 30.7 °F 98% 29.82 in - East 9.2 mph - N/A   Unknown
11:00 PM 31.3 °F 25.6 °F 30.9 °F 99% 29.78 in - ESE 5.8 mph - N/A   Unknown